Regional Weather Roundup
Issued by NWS Wakefield, VA

Home | Current Version | Previous Version | Graphics & Text | Print | Product List | Glossary On
Versions: 1 2 3 4 5 6 7 8 9 10 11 12 13 14 15 16 17 18 19 20 21 22 23 24 25 26 27 28 29 30 31 32 33 34 35 36 37 38 39 40 41 42 43 44 45 46 47 48 49 50
000
ASUS41 KAKQ 032014
RWRAKQ

REGIONAL WEATHER ROUNDUP
NATIONAL WEATHER SERVICE WAKEFIELD VA
400 PM EDT SUN MAY 03 2015

Note: "fair" indicates few or no clouds below 12,000 feet with no
significant weather and/or obstructions to visibility. * = Denotes
station may not report precipitation (e.g., rain,snow,etc.),
thunder or fog.

VAZ042-051-052>054-056-032100-
NORTHERN VIRGINIA

CITY           SKY/WX    TMP DP  RH WIND       PRES   REMARKS
WASH NATIONAL  MOSUNNY   83  45  26 CALM      30.09F
DULLES         PTSUNNY   80  42  25 NW10G16   30.09F
FORT BELVOIR   MOSUNNY   80  44  28 SE7       30.09F
QUANTICO       CLOUDY    73  51  46 S9        30.10F
FREDERICKSBRG* MOSUNNY   82  42  24 CALM      30.10F
STAFFORD*      MOSUNNY   79  36  21 SW5       30.14F
WARRENTON      PTSUNNY   80  46  29 NW6       30.10F
CULPEPER*      NOT AVBL
MANASSAS*      MOSUNNY   81  43  26 W7        30.10F
LEESBURG*      PTSUNNY   79  45  29 W5        30.11S
WINCHESTER     CLOUDY    77  30  18 SW5       30.11S
FRONT ROYAL*   MOCLDY    73  43  33 CALM      30.10F
LURAY*         FAIR      77  43  29 SW5       30.12F
$$

VAZ048-049-060>072-079>083-032100-
CENTRAL AND SOUTH CENTRAL VIRGINIA

CITY           SKY/WX    TMP DP  RH WIND       PRES   REMARKS
RICHMOND       MOSUNNY   82  40  22 CALM      30.11F
CHESTERFIELD*  MOCLDY    81  39  22 CALM      30.13F
PETERSBURG*    MOSUNNY   81  35  18 SW3       30.13F
HANOVER        MOSUNNY   80  39  23 SW6       30.13F
TAPPAHANNOCK*  SUNNY     81  28  14 SW7       30.12S
QUINTON*       MOCLDY    80  39  23 S7        30.11F
CHARLOTTSVILLE MOSUNNY   78  39  24 CALM      30.12F
GORDONSVILLE*  MOCLDY    76  40  27 CALM      30.11F
ORANGE*        MOSUNNY   79  43  27 CALM      30.13F
LOUISA*        PTSUNNY   77  43  29 CALM      30.12S
BUMPASS*       FAIR      77  40  25 CALM      30.12S
FARMVILLE*     CLOUDY    80  38  22 S9        30.12F
CREWE*         FAIR      77  34  21 CALM      30.13F
FORT PICKETT*  CLOUDY    76  40  27 SE7       30.13F
CHASE CITY*    FAIR      80  44  27 S3        30.14F
CLARKSVILLE*   MOCLDY    75  41  29 CALM      30.14F
SOUTH HILL*    SUNNY     77  43  29 W8        30.20F
LAWRENCEVILLE* FAIR      78  43  28 W7        30.14F
EMPORIA*       CLOUDY    77  41  27 E3        30.15F
$$

VAZ088>098-032100-
SOUTHEAST VIRGINIA

CITY           SKY/WX    TMP DP  RH WIND       PRES   REMARKS
NORFOLK        MOSUNNY   79  37  22 VRB3      30.12F
VIRGINIA BEACH MOSUNNY   76  46  34 E8        30.12F
NORFOLK NAVAL  MOSUNNY   83  42  23 W6        30.14F
WEST POINT*    SUNNY     83  21  10 CALM      30.13S
SALUDA*        FAIR      78  42  26 NW5       30.11F
NEWPORT NEWS   SUNNY     84  43  23 NW8       30.12F
LANGLEY AFB    MOSUNNY   79  40  24 VRB1      30.11F
FORT EUSTIS    SUNNY     79  46  31 VRB2      30.11S
WILLIAMSBURG*  SUNNY     84  43  23 SW9       30.13S
HR EXEC AP*    FAIR      79  45  29 NW3       30.14S
FRANKLIN*      PTSUNNY   80  43  27 SW6       30.13F
WAKEFIELD      SUNNY     81  40  23 VRB5      30.13F
$$

VAZ020-022-025-037-045-032100-
WEST CENTRAL AND SOUTHWEST VIRGINIA

CITY           SKY/WX    TMP DP  RH WIND       PRES   REMARKS
STAUNTON*      MOSUNNY   76  38  24 CALM      30.15F
WAYNESBORO*    FAIR      73  33  23 N3        30.14F
HOT SPRINGS VA MOSUNNY   65  31  28 S5        30.21S
LYNCHBURG      MOSUNNY   74  37  26 VRB6      30.16F
DANVILLE       MOSUNNY   76  42  29 CALM      30.14F
SOUTH BOSTON*  FAIR      76  40  27 SW6       30.14F
MARTINSVILLE   PTSUNNY   78  40  25 S3        30.17F
ROANOKE        CLOUDY    74  38  27 CALM      30.16F
BLACKSBURG     CLOUDY    70  37  30 NW6       30.21F
DUBLIN*        CLOUDY    73  37  26 W3        30.18F
MARION*        MOSUNNY   72  38  29 SE5       30.19F
HILLSVILLE*    PTSUNNY   71  42  35 SW3       30.19F
RICHLANDS*     FAIR      71  31  23 SW8       30.18F
WISE*          SUNNY     73  34  23 W5        30.18F
ABINGDON*      MOSUNNY   75  39  27 NW7       30.16F
$$

MDZ021>025-VAZ099-100-032100-
SOUTHERN MARYLAND AND THE DELMARVA PENINSULA

CITY           SKY/WX    TMP DP  RH WIND       PRES   REMARKS
PATUXENT RIVER MOSUNNY   76  42  29 SE8       30.10F
BAY BRIDGE APT   N/A    N/A N/A N/A SE8       30.09F
LEONARDTOWN    PTSUNNY   77  37  24 SE6       30.12F
DOVER          SUNNY     76  50  40 E7        30.06F
GEORGETOWN     MOSUNNY   78  41  26 VRB7      30.09F
EASTON         MOSUNNY   81  45  28 SW7       30.13F
CAMBRIDGE      SUNNY     79  34  19 N5        30.10S
SALISBURY      PTSUNNY   79  38  22 VRB3      30.09F
OCEAN CITY     SUNNY     63  50  62 SE7       30.12S
WALLOPS ISLAND SUNNY     78  39  24 W12       30.10F
ACCOMACK*      SUNNY     77  46  33 NW7       30.12S
$$

NCZ012>017-030>032-032100-
NORTH CENTRAL AND EASTERN NORTH CAROLINA

CITY           SKY/WX    TMP DP  RH WIND       PRES   REMARKS
ROANOKE RAPIDS MOCLDY    75  45  33 CALM      30.14F
RALEIGH        PTSUNNY   76  42  29 CALM      30.16F
ELIZABETH CITY SUNNY     78  47  33 S8        30.14F
AHOSKIE*       SUNNY     78  45  31 S5        30.14F
EDENTON*       SUNNY     78  44  29 W7        30.15F
CURRITUCK*     PTSUNNY   79  39  23 SE3       30.14F
KILL DEVIL HLS SUNNY     77  36  22 W6        30.14F
MANTEO         SUNNY     77  41  27 N8        30.15F
CAPE HATTERAS  SUNNY     70  54  56 VRB6      30.17F
TARBORO*       FAIR      80  44  28 CALM      30.16F
GOLDSBORO      MOSUNNY   80  46  30 W1        30.14F
WASHINGTON     SUNNY     78  43  29 S8        30.16F
GREENVILLE     SUNNY     79  43  27 NW5       30.17F
NEW BERN       MOSUNNY   79  45  29 W6        30.16F
WILMINGTON     SUNNY     76  39  26 SE12      30.17F
$$

VAZ048-032100-
ELSEWHERE

CITY           SKY/WX    TMP DP  RH WIND       PRES   REMARKS
HARRISBURG PA  PTSUNNY   77  37  23 CALM      30.06F
BALTIMORE      MOSUNNY   80  40  23 W9G22     30.07F
ANNAPOLIS      FAIR      73  45  36 SE13      30.08F
ANDREWS AFB    MOSUNNY   79  42  26 VRB5      30.08F
PHILADELPHIA   MOSUNNY   79  36  21 W7        30.07F
HENDERSON NC   MOSUNNY   78  38  24 SW9       30.15F
GREENSBORO     PTSUNNY   76  43  30 VRB5      30.15F
ROCKY MOUNT    MOSUNNY   79  45  29 S3        30.15F
$$

VAZ100-032100-
MARINE

STATION/POSITION TIME  TEMP    WIND        PRES    WAVE   SWELL
                       AIR SEA DIR/SP/G            HT/PER HT/PER
                 (UTC) (F)     (DEG/KT/KT) (MB)    (FT/S) (FT/S)
BRANDYWINE LGT   1906   60 56  210/  7/  7 1019.8F
CAPE MAY NJ      1900   67 59  200/  6/  7 1019.2S
LEWES DE         1900   66 53   70/  6/  6 1019.5F
15NM E FENWICK I 1950   54 53              1019.7F   4/13
OCEAN-CITY-INLET 1906   61 58  130/  4/  7 1019.8F
WACHAPREAGUE VA  1900   80 66  290/  3/  8 1020.0F
THOMAS POINT MD  2000   68 57  180/ 10/ 10 1019.5F
GOOSES REEF MD   2000   69 63                N/A     0
COVE POINT MD    1900   72      90/  5/  6 1020.2F
SOLOMONS ISLAND  1906      61                N/A
BISHOPS HEAD MD  1900   65 64  240/  6/  8 1019.5F
PINEY POINT MD   1900          320/  6/  7   N/A
CAMBRIDGE MD     1900   74 61  330/  5/  5 1019.4F
LEWISETTA VA     1900   67 63              1019.6F
RAPPAHANNOCK LGT 1900          200/  5/  5 1020.9S
YORK RVR RNG VA  1906   68     160/  7/  8 1019.6F
YORKTOWN VA      1906   77 62  330/  3/  4 1019.9F
JAMESTOWN VA     2000   76 66  310/  4/  4 1019.1F
DOMINION TERM VA 1900   74     240/  3/  3 1020.6F
KIPTOPEKE VA     1900      63  190/  3/  3   N/A
CHES BAY BRIDGE  1906   77 60  310/  2/  2 1020.1F
CAPE HENRY VA    1900   73     310/  5/  5 1019.3F
CHESAPEAKE LGHT  1900   70     300/  1/  1 1021.4F
WILLOUBY STN VA  1900   75     230/ 10/ 11 1021.0F
S CRANEY ISL VA  1906          330/  3/  5 1020.4F
CAPE HENRY BUOY  1928      60                N/A     4/10   2/11
1ST LANDING BUOY 2000      61                N/A     2/ 6
CAPE CHARLES BUO 1926      60                N/A     4/10   3/10
OFFSHORE WE BUOY 1911      57                N/A     4/10   5/10
64NM E OF VA BCH 1950   62 63  210/  4/  4 1020.6F   5/13   5/13
DUCK PIER NC     1906   74 53  200/  7/ 10 1020.1F
44056 DUCK FRF   1911      59                N/A     5/ 9   3/11
OREGON INLET NC  1900   75 58   10/  3/  5 1021.4F
HATTERAS NC      1906   72 62  260/  6/  9 1021.4F
DIAMOND SHLS NC  1950   64 62  250/  6/  6 1021.9F   5/12   5/12
CAPE LOOKOUT NC  2000   71     220/  9/ 13 1021.6F
$$


USA.gov is the U.S. government's official web portal to all federal, state and local government web resources and services.